Time,TemperatureF,DewpointF,PressureIn,WindDirection,WindDirectionDegrees,WindSpeedMPH,WindSpeedGustMPH,Humidity,HourlyPrecipIn,Conditions,Clouds,dailyrainin,SoftwareType,DateUTC
2017-02-28 00:02:00,44.6,37.8,29.98,SW,225,1.6,1.6,77,0.00,CLR,,0.00,WeatherDisplay:10.37,2017-02-27 22:02:00,
2017-02-28 00:07:00,44.2,37.5,29.99,SW,225,1.2,1.2,77,0.00,CLR,,0.00,WeatherDisplay:10.37,2017-02-27 22:07:00,
2017-02-28 00:12:00,44.1,37.3,29.98,SSW,202,2.3,2.3,77,0.00,CLR,,0.00,WeatherDisplay:10.37,2017-02-27 22:12:00,
2017-02-28 00:17:00,43.7,37.0,29.98,SW,225,2.3,2.3,77,0.00,CLR,,0.00,WeatherDisplay:10.37,2017-02-27 22:17:00,
2017-02-28 00:22:00,43.3,36.6,29.98,SW,225,2.3,2.3,77,0.00,CLR,,0.00,WeatherDisplay:10.37,2017-02-27 22:22:00,
2017-02-28 00:27:00,43.2,36.8,29.98,SSW,202,1.2,1.2,78,0.00,CLR,,0.00,WeatherDisplay:10.37,2017-02-27 22:27:00,
2017-02-28 00:32:00,43.0,36.6,29.98,SW,225,2.0,2.0,78,0.00,CLR,,0.00,WeatherDisplay:10.37,2017-02-27 22:32:00,
2017-02-28 00:37:00,42.8,36.4,29.98,SW,225,2.3,2.3,78,0.00,CLR,,0.00,WeatherDisplay:10.37,2017-02-27 22:37:00,
2017-02-28 00:42:00,42.8,36.4,29.98,SW,225,2.3,2.3,78,0.00,CLR,,0.00,WeatherDisplay:10.37,2017-02-27 22:42:00,
2017-02-28 00:47:00,42.4,36.1,29.98,SW,225,2.3,2.3,78,0.00,CLR,,0.00,WeatherDisplay:10.37,2017-02-27 22:47:00,
2017-02-28 00:52:00,42.3,36.2,29.99,SW,225,3.5,3.5,79,0.00,CLR,,0.00,WeatherDisplay:10.37,2017-02-27 22:52:00,
2017-02-28 00:57:00,42.1,36.4,29.99,SW,225,1.4,1.4,80,0.00,CLR,,0.00,WeatherDisplay:10.37,2017-02-27 22:57:00,
2017-02-28 01:02:00,42.1,36.4,29.98,West,270,2.9,2.9,80,0.00,CLR,,0.00,WeatherDisplay:10.37,2017-02-27 23:02:00,
2017-02-28 01:07:00,42.6,36.9,29.98,SW,225,3.5,3.5,80,0.00,CLR,,0.00,WeatherDisplay:10.37,2017-02-27 23:07:00,
2017-02-28 01:12:00,42.4,36.7,29.98,SW,225,1.2,1.2,80,0.00,CLR,,0.00,WeatherDisplay:10.37,2017-02-27 23:12:00,
2017-02-28 01:17:00,41.9,36.2,29.99,SW,225,1.8,1.8,80,0.00,CLR,,0.00,WeatherDisplay:10.37,2017-02-27 23:17:00,
2017-02-28 01:22:00,41.5,35.8,29.99,SW,225,1.2,1.2,80,0.00,CLR,,0.00,WeatherDisplay:10.37,2017-02-27 23:22:00,
2017-02-28 01:27:00,41.4,35.7,29.99,SW,225,2.3,2.3,80,0.00,CLR,,0.00,WeatherDisplay:10.37,2017-02-27 23:27:00,
2017-02-28 01:32:00,41.4,35.7,29.99,SW,225,1.2,1.2,80,0.00,CLR,,0.00,WeatherDisplay:10.37,2017-02-27 23:32:00,
2017-02-28 01:37:00,41.4,36.0,29.99,SSW,202,1.2,1.2,81,0.00,CLR,,0.00,WeatherDisplay:10.37,2017-02-27 23:37:00,
2017-02-28 01:42:00,41.4,36.0,29.98,SW,225,2.3,2.3,81,0.00,CLR,,0.00,WeatherDisplay:10.37,2017-02-27 23:42:00,
2017-02-28 01:47:00,41.2,35.8,29.98,SW,225,1.2,1.2,81,0.00,CLR,,0.00,WeatherDisplay:10.37,2017-02-27 23:47:00,
2017-02-28 01:52:00,41.5,36.5,29.98,SSW,202,1.2,1.2,82,0.00,CLR,,0.00,WeatherDisplay:10.37,2017-02-27 23:52:00,
2017-02-28 01:57:00,41.5,36.5,29.98,SW,225,2.6,2.6,82,0.00,CLR,,0.00,WeatherDisplay:10.37,2017-02-27 23:57:00,
2017-02-28 02:02:00,41.4,36.3,29.98,SW,225,1.2,1.2,82,0.00,CLR,,0.00,WeatherDisplay:10.37,2017-02-28 00:02:00,
2017-02-28 02:07:00,41.2,36.1,29.98,SSW,202,2.3,2.3,82,0.00,CLR,,0.00,WeatherDisplay:10.37,2017-02-28 00:07:00,
2017-02-28 02:12:00,41.0,35.6,29.99,WNW,292,1.2,0.0,81,0.00,CLR,,0.00,WeatherDisplay:10.37,2017-02-28 00:12:00,
2017-02-28 02:17:00,40.6,35.6,29.99,SW,225,1.2,1.2,82,0.00,CLR,,0.00,WeatherDisplay:10.37,2017-02-28 00:17:00,
2017-02-28 02:22:00,40.5,35.4,29.98,SW,225,1.8,1.8,82,0.00,CLR,,0.00,WeatherDisplay:10.37,2017-02-28 00:22:00,
2017-02-28 02:27:00,40.5,35.4,29.98,SW,225,2.3,2.3,82,0.00,CLR,,0.00,WeatherDisplay:10.37,2017-02-28 00:27:00,
2017-02-28 02:32:00,40.3,35.5,29.98,SW,225,1.8,1.8,83,0.00,CLR,,0.00,WeatherDisplay:10.37,2017-02-28 00:32:00,
2017-02-28 02:37:00,40.3,35.5,29.98,SW,225,2.3,2.9,83,0.00,CLR,,0.00,WeatherDisplay:10.37,2017-02-28 00:37:00,
2017-02-28 02:42:00,40.5,35.7,29.98,WSW,248,2.3,2.3,83,0.00,CLR,,0.00,WeatherDisplay:10.37,2017-02-28 00:42:00,
2017-02-28 02:47:00,40.6,35.9,29.98,WSW,248,2.3,2.4,83,0.00,CLR,,0.00,WeatherDisplay:10.37,2017-02-28 00:47:00,
2017-02-28 02:52:00,40.8,36.4,29.99,SW,225,2.3,2.3,84,0.00,CLR,,0.00,WeatherDisplay:10.37,2017-02-28 00:52:00,
2017-02-28 02:57:00,41.0,36.5,29.98,SW,225,2.3,2.3,84,0.00,CLR,,0.00,WeatherDisplay:10.37,2017-02-28 00:57:00,
2017-02-28 03:02:00,40.8,36.4,29.98,SW,225,2.3,2.3,84,0.00,CLR,,0.00,WeatherDisplay:10.37,2017-02-28 01:02:00,
2017-02-28 03:07:00,40.6,35.9,29.98,SW,225,2.3,2.3,83,0.00,CLR,,0.00,WeatherDisplay:10.37,2017-02-28 01:07:00,
2017-02-28 03:12:00,40.6,36.2,29.98,SW,225,2.3,2.3,84,0.00,CLR,,0.00,WeatherDisplay:10.37,2017-02-28 01:12:00,
2017-02-28 03:17:00,40.6,36.2,29.99,SSW,202,1.4,1.4,84,0.00,CLR,,0.00,WeatherDisplay:10.37,2017-02-28 01:17:00,
2017-02-28 03:22:00,41.0,36.5,29.99,SSW,202,1.2,1.2,84,0.00,CLR,,0.00,WeatherDisplay:10.37,2017-02-28 01:22:00,
2017-02-28 03:27:00,40.8,36.4,29.99,SE,135,0.0,0.0,84,0.00,CLR,,0.00,WeatherDisplay:10.37,2017-02-28 01:27:00,
2017-02-28 03:32:00,40.5,36.0,29.98,WSW,248,1.2,1.2,84,0.00,CLR,,0.00,WeatherDisplay:10.37,2017-02-28 01:32:00,
2017-02-28 03:37:00,40.1,35.7,29.98,SW,225,1.2,1.2,84,0.00,CLR,,0.00,WeatherDisplay:10.37,2017-02-28 01:37:00,
2017-02-28 03:42:00,39.7,35.0,29.98,SW,225,1.2,1.2,83,0.00,CLR,,0.00,WeatherDisplay:10.37,2017-02-28 01:42:00,
2017-02-28 03:47:00,39.9,35.5,29.98,South,180,1.6,1.6,84,0.00,CLR,,0.00,WeatherDisplay:10.37,2017-02-28 01:47:00,
2017-02-28 03:52:00,39.7,35.3,29.98,SW,225,2.3,2.3,84,0.00,CLR,,0.00,WeatherDisplay:10.37,2017-02-28 01:52:00,
2017-02-28 03:57:00,39.7,35.3,29.98,SSW,202,1.2,1.2,84,0.00,CLR,,0.00,WeatherDisplay:10.37,2017-02-28 01:57:00,
2017-02-28 04:02:00,39.7,35.3,29.99,SW,225,2.4,2.4,84,0.00,CLR,,0.00,WeatherDisplay:10.37,2017-02-28 02:02:00,
2017-02-28 04:07:00,39.4,34.9,29.98,SW,225,1.4,1.4,84,0.00,CLR,,0.00,WeatherDisplay:10.37,2017-02-28 02:07:00,
2017-02-28 04:12:00,39.2,35.1,29.98,SW,225,2.3,2.3,85,0.00,CLR,,0.00,WeatherDisplay:10.37,2017-02-28 02:12:00,
2017-02-28 04:17:00,39.2,35.1,29.98,SW,225,2.3,2.3,85,0.00,CLR,,0.00,WeatherDisplay:10.37,2017-02-28 02:17:00,
2017-02-28 04:22:00,39.0,34.9,29.98,SW,225,2.3,2.3,85,0.00,CLR,,0.00,WeatherDisplay:10.37,2017-02-28 02:22:00,
2017-02-28 04:27:00,38.8,34.7,29.97,SW,225,2.3,2.3,85,0.00,CLR,,0.00,WeatherDisplay:10.37,2017-02-28 02:27:00,
2017-02-28 04:32:00,38.8,34.7,29.97,SSW,202,1.4,1.4,85,0.00,CLR,,0.00,WeatherDisplay:10.37,2017-02-28 02:32:00,
2017-02-28 04:37:00,38.8,34.7,29.97,SW,225,2.3,2.3,85,0.00,CLR,,0.00,WeatherDisplay:10.37,2017-02-28 02:37:00,
2017-02-28 04:42:00,39.2,35.4,29.97,SW,225,2.3,2.3,86,0.00,CLR,,0.00,WeatherDisplay:10.37,2017-02-28 02:42:00,
2017-02-28 04:47:00,39.2,35.4,29.97,SW,225,0.7,0.7,86,0.00,CLR,,0.00,WeatherDisplay:10.37,2017-02-28 02:47:00,
2017-02-28 04:52:00,39.2,35.4,29.97,SW,225,2.3,2.3,86,0.00,CLR,,0.00,WeatherDisplay:10.37,2017-02-28 02:52:00,
2017-02-28 04:57:00,39.0,35.2,29.97,SW,225,0.5,0.5,86,0.00,CLR,,0.00,WeatherDisplay:10.37,2017-02-28 02:57:00,
2017-02-28 05:02:00,39.2,35.4,29.97,SW,225,2.2,2.2,86,0.00,CLR,,0.00,WeatherDisplay:10.37,2017-02-28 03:02:00,
2017-02-28 05:07:00,39.2,35.4,29.98,SW,225,2.3,2.3,86,0.00,CLR,,0.00,WeatherDisplay:10.37,2017-02-28 03:07:00,
2017-02-28 05:12:00,39.0,35.2,29.98,SSW,202,0.0,0.0,86,0.00,CLR,,0.00,WeatherDisplay:10.37,2017-02-28 03:12:00,
2017-02-28 05:17:00,39.0,35.2,29.98,SW,225,2.3,2.3,86,0.00,CLR,,0.00,WeatherDisplay:10.37,2017-02-28 03:17:00,
2017-02-28 05:22:00,38.8,35.0,29.98,SW,225,2.3,2.3,86,0.00,CLR,,0.00,WeatherDisplay:10.37,2017-02-28 03:22:00,
2017-02-28 05:27:00,38.7,34.8,29.98,South,180,0.7,0.7,86,0.00,CLR,,0.00,WeatherDisplay:10.37,2017-02-28 03:27:00,
2017-02-28 05:32:00,38.7,35.1,29.98,SE,135,1.2,1.2,87,0.00,CLR,,0.00,WeatherDisplay:10.37,2017-02-28 03:32:00,
2017-02-28 05:37:00,38.8,35.3,29.98,SW,225,1.8,1.8,87,0.00,CLR,,0.00,WeatherDisplay:10.37,2017-02-28 03:37:00,
2017-02-28 05:42:00,38.8,35.3,29.98,WSW,248,0.0,0.0,87,0.00,CLR,,0.00,WeatherDisplay:10.37,2017-02-28 03:42:00,
2017-02-28 05:47:00,38.8,35.3,29.98,SSW,202,1.2,1.2,87,0.00,CLR,,0.00,WeatherDisplay:10.37,2017-02-28 03:47:00,
2017-02-28 05:52:00,38.8,35.3,29.98,SW,225,2.3,2.3,87,0.00,CLR,,0.00,WeatherDisplay:10.37,2017-02-28 03:52:00,
2017-02-28 05:57:00,38.8,35.3,29.98,SW,225,2.3,2.3,87,0.00,CLR,,0.00,WeatherDisplay:10.37,2017-02-28 03:57:00,
2017-02-28 06:02:00,39.0,35.5,29.98,SW,225,1.2,1.2,87,0.00,CLR,,0.00,WeatherDisplay:10.37,2017-02-28 04:02:00,
2017-02-28 06:07:00,39.2,35.7,29.98,SW,225,2.3,2.3,87,0.00,CLR,,0.00,WeatherDisplay:10.37,2017-02-28 04:07:00,
2017-02-28 06:12:00,39.2,35.7,29.98,SW,225,1.6,1.6,87,0.00,CLR,,0.00,WeatherDisplay:10.37,2017-02-28 04:12:00,
2017-02-28 06:17:00,39.2,35.7,29.98,SW,225,1.2,1.2,87,0.00,CLR,,0.00,WeatherDisplay:10.37,2017-02-28 04:17:00,
2017-02-28 06:22:00,39.2,35.7,29.98,SW,225,1.2,1.2,87,0.00,CLR,,0.00,WeatherDisplay:10.37,2017-02-28 04:22:00,
2017-02-28 06:27:00,39.0,35.5,29.98,SSW,202,1.2,1.2,87,0.00,CLR,,0.00,WeatherDisplay:10.37,2017-02-28 04:27:00,
2017-02-28 06:32:00,39.2,35.7,29.98,SSW,202,1.2,1.2,87,0.00,CLR,,0.00,WeatherDisplay:10.37,2017-02-28 04:32:00,
2017-02-28 06:37:00,39.4,35.8,29.98,SSW,202,0.0,0.0,87,0.00,CLR,,0.00,WeatherDisplay:10.37,2017-02-28 04:37:00,
2017-02-28 06:42:00,39.9,36.4,29.98,SSW,202,0.0,0.0,87,0.00,CLR,,0.00,WeatherDisplay:10.37,2017-02-28 04:42:00,
2017-02-28 06:47:00,39.7,36.2,29.99,WNW,292,1.4,1.4,87,0.00,CLR,,0.00,WeatherDisplay:10.37,2017-02-28 04:47:00,
2017-02-28 06:52:00,39.6,36.0,29.98,SW,225,1.8,1.8,87,0.00,CLR,,0.00,WeatherDisplay:10.37,2017-02-28 04:52:00,
2017-02-28 06:57:00,39.6,36.0,29.98,WSW,248,2.3,2.3,87,0.00,CLR,,0.00,WeatherDisplay:10.37,2017-02-28 04:57:00,
2017-02-28 07:02:00,39.9,36.4,29.98,WNW,292,1.4,1.4,87,0.00,CLR,,0.00,WeatherDisplay:10.37,2017-02-28 05:02:00,
2017-02-28 07:07:00,40.3,36.7,29.98,WSW,248,1.2,1.2,87,0.00,CLR,,0.00,WeatherDisplay:10.37,2017-02-28 05:07:00,
2017-02-28 07:12:00,40.5,36.9,29.99,WSW,248,1.2,1.2,87,0.00,CLR,,0.00,WeatherDisplay:10.37,2017-02-28 05:12:00,
2017-02-28 07:17:00,40.8,37.3,29.99,WSW,248,1.2,1.6,87,0.00,CLR,,0.00,WeatherDisplay:10.37,2017-02-28 05:17:00,
2017-02-28 07:22:00,41.2,37.6,29.99,WSW,248,2.3,2.3,87,0.00,CLR,,0.00,WeatherDisplay:10.37,2017-02-28 05:22:00,
2017-02-28 07:27:00,41.7,38.4,29.98,WSW,248,1.2,1.2,88,0.00,CLR,,0.00,WeatherDisplay:10.37,2017-02-28 05:27:00,
2017-02-28 07:32:00,42.1,38.8,29.98,West,270,1.6,1.6,88,0.00,CLR,,0.00,WeatherDisplay:10.37,2017-02-28 05:32:00,
2017-02-28 07:37:00,42.8,39.2,29.98,West,270,1.2,1.2,87,0.00,CLR,,0.00,WeatherDisplay:10.37,2017-02-28 05:37:00,
2017-02-28 07:42:00,43.3,39.7,29.98,West,270,1.2,0.0,87,0.00,CLR,,0.00,WeatherDisplay:10.37,2017-02-28 05:42:00,
2017-02-28 07:47:00,43.7,40.1,29.98,West,270,0.0,0.0,87,0.00,CLR,,0.00,WeatherDisplay:10.37,2017-02-28 05:47:00,
2017-02-28 07:52:00,43.5,39.6,29.98,SSE,158,0.0,0.0,86,0.00,CLR,,0.00,WeatherDisplay:10.37,2017-02-28 05:52:00,
2017-02-28 07:57:00,43.5,39.6,29.98,SE,135,1.2,1.2,86,0.00,CLR,,0.00,WeatherDisplay:10.37,2017-02-28 05:57:00,
2017-02-28 08:02:00,43.7,39.8,29.99,NE,45,1.2,1.2,86,0.00,CLR,,0.00,WeatherDisplay:10.37,2017-02-28 06:02:00,
2017-02-28 08:07:00,44.2,40.0,29.99,ENE,68,1.2,0.0,85,0.00,CLR,,0.00,WeatherDisplay:10.37,2017-02-28 06:07:00,
2017-02-28 08:12:00,45.5,41.3,29.99,ENE,68,0.0,0.0,85,0.00,CLR,,0.00,WeatherDisplay:10.37,2017-02-28 06:12:00,
2017-02-28 08:17:00,46.6,41.7,29.99,ENE,68,1.2,1.2,83,0.00,CLR,,0.00,WeatherDisplay:10.37,2017-02-28 06:17:00,
2017-02-28 08:22:00,47.7,42.1,29.99,ESE,112,2.3,2.3,81,0.00,CLR,,0.00,WeatherDisplay:10.37,2017-02-28 06:22:00,
2017-02-28 08:27:00,48.2,43.0,29.99,NNE,22,1.2,1.2,82,0.00,CLR,,0.00,WeatherDisplay:10.37,2017-02-28 06:27:00,
2017-02-28 08:32:00,48.4,42.5,29.99,NE,45,2.3,2.3,80,0.00,CLR,,0.00,WeatherDisplay:10.37,2017-02-28 06:32:00,
2017-02-28 08:37:00,48.2,42.0,29.99,NE,45,1.2,1.2,79,0.00,CLR,,0.00,WeatherDisplay:10.37,2017-02-28 06:37:00,
2017-02-28 08:42:00,48.6,42.3,29.99,NE,45,1.2,1.6,79,0.00,CLR,,0.00,WeatherDisplay:10.37,2017-02-28 06:42:00,
2017-02-28 08:47:00,50.0,44.1,30.00,SW,225,1.2,1.2,80,0.00,CLR,,0.00,WeatherDisplay:10.37,2017-02-28 06:47:00,
2017-02-28 08:52:00,51.6,44.3,29.99,NNE,22,1.2,1.2,76,0.00,CLR,,0.00,WeatherDisplay:10.37,2017-02-28 06:52:00,
2017-02-28 08:57:00,52.3,44.3,29.99,NNE,22,2.3,2.3,74,0.00,CLR,,0.00,WeatherDisplay:10.37,2017-02-28 06:57:00,
2017-02-28 09:02:00,52.2,44.1,30.00,East,90,2.3,2.3,74,0.00,CLR,,0.00,WeatherDisplay:10.37,2017-02-28 07:02:00,
2017-02-28 09:07:00,52.2,43.4,30.00,NE,45,1.8,1.8,72,0.00,CLR,,0.00,WeatherDisplay:10.37,2017-02-28 07:07:00,
2017-02-28 09:12:00,52.5,43.8,30.00,North,0,2.3,2.3,72,0.00,CLR,,0.00,WeatherDisplay:10.37,2017-02-28 07:12:00,
2017-02-28 09:17:00,52.7,43.9,30.00,North,0,1.2,1.2,72,0.00,CLR,,0.00,WeatherDisplay:10.37,2017-02-28 07:17:00,
2017-02-28 09:22:00,53.1,43.9,30.00,NNE,22,2.3,2.3,71,0.00,CLR,,0.00,WeatherDisplay:10.37,2017-02-28 07:22:00,
2017-02-28 09:27:00,53.4,43.9,30.00,East,90,3.1,3.1,70,0.00,CLR,,0.00,WeatherDisplay:10.37,2017-02-28 07:27:00,
2017-02-28 09:32:00,52.9,43.4,30.00,ENE,68,2.9,2.9,70,0.00,CLR,,0.00,WeatherDisplay:10.37,2017-02-28 07:32:00,
2017-02-28 09:37:00,53.2,44.1,30.00,East,90,2.3,2.3,71,0.00,CLR,,0.00,WeatherDisplay:10.37,2017-02-28 07:37:00,
2017-02-28 09:42:00,53.6,43.7,30.00,East,90,2.3,2.3,69,0.00,CLR,,0.00,WeatherDisplay:10.37,2017-02-28 07:42:00,
2017-02-28 09:47:00,53.6,43.3,30.00,East,90,3.5,3.5,68,0.00,CLR,,0.00,WeatherDisplay:10.37,2017-02-28 07:47:00,
2017-02-28 09:52:00,52.9,43.4,29.99,East,90,2.3,2.3,70,0.00,CLR,,0.00,WeatherDisplay:10.37,2017-02-28 07:52:00,
2017-02-28 09:57:00,53.2,42.9,29.99,ENE,68,2.4,2.4,68,0.00,CLR,,0.00,WeatherDisplay:10.37,2017-02-28 07:57:00,
2017-02-28 10:02:00,53.6,43.3,29.99,ENE,68,2.3,2.3,68,0.00,CLR,,0.00,WeatherDisplay:10.37,2017-02-28 08:02:00,
2017-02-28 10:07:00,54.3,44.4,29.99,ESE,112,3.6,3.6,69,0.00,CLR,,0.00,WeatherDisplay:10.37,2017-02-28 08:07:00,
2017-02-28 10:12:00,55.4,44.6,29.98,ESE,112,4.6,4.6,67,0.00,CLR,,0.00,WeatherDisplay:10.37,2017-02-28 08:12:00,
2017-02-28 10:17:00,56.5,44.4,29.98,East,90,2.6,2.6,64,0.00,CLR,,0.00,WeatherDisplay:10.37,2017-02-28 08:17:00,
2017-02-28 10:22:00,55.4,43.8,29.98,ESE,112,4.6,4.6,65,0.00,CLR,,0.00,WeatherDisplay:10.37,2017-02-28 08:22:00,
2017-02-28 10:27:00,54.7,43.5,29.98,NNE,22,1.2,1.2,66,0.00,CLR,,0.00,WeatherDisplay:10.37,2017-02-28 08:27:00,
2017-02-28 10:32:00,55.0,43.5,29.97,East,90,2.3,4.0,65,0.00,CLR,,0.00,WeatherDisplay:10.37,2017-02-28 08:32:00,
2017-02-28 10:37:00,55.4,44.6,29.98,East,90,2.3,2.3,67,0.00,CLR,,0.00,WeatherDisplay:10.37,2017-02-28 08:37:00,
2017-02-28 10:43:00,56.7,44.6,29.97,NNE,22,2.3,2.3,64,0.00,CLR,,0.00,WeatherDisplay:10.37,2017-02-28 08:43:00,
2017-02-28 10:48:00,56.5,43.6,29.97,East,90,3.5,3.5,62,0.00,CLR,,0.00,WeatherDisplay:10.37,2017-02-28 08:48:00,
2017-02-28 10:53:00,55.6,43.6,29.97,East,90,2.3,2.3,64,0.00,CLR,,0.00,WeatherDisplay:10.37,2017-02-28 08:53:00,
2017-02-28 10:58:00,55.0,43.9,29.97,East,90,2.3,2.3,66,0.00,CLR,,0.00,WeatherDisplay:10.37,2017-02-28 08:58:00,
2017-02-28 11:03:00,56.1,44.1,29.97,East,90,3.5,3.5,64,0.00,CLR,,0.00,WeatherDisplay:10.37,2017-02-28 09:03:00,
2017-02-28 11:08:00,56.8,44.4,29.96,North,0,2.3,2.3,63,0.00,CLR,,0.00,WeatherDisplay:10.37,2017-02-28 09:08:00,
2017-02-28 11:13:00,57.0,44.5,29.96,East,90,3.5,3.5,63,0.00,CLR,,0.00,WeatherDisplay:10.37,2017-02-28 09:13:00,
2017-02-28 11:18:00,55.9,43.5,29.96,NE,45,3.5,3.5,63,0.00,CLR,,0.00,WeatherDisplay:10.37,2017-02-28 09:18:00,
2017-02-28 11:23:00,55.8,43.8,29.96,NE,45,2.3,2.3,64,0.00,CLR,,0.00,WeatherDisplay:10.37,2017-02-28 09:23:00,
2017-02-28 11:28:00,56.1,43.7,29.96,East,90,4.6,4.6,63,0.00,CLR,,0.00,WeatherDisplay:10.37,2017-02-28 09:28:00,
2017-02-28 11:33:00,55.8,43.8,29.96,ENE,68,5.8,5.8,64,0.00,CLR,,0.00,WeatherDisplay:10.37,2017-02-28 09:33:00,
2017-02-28 11:38:00,55.9,44.3,29.96,NE,45,1.2,1.2,65,0.00,CLR,,0.00,WeatherDisplay:10.37,2017-02-28 09:38:00,
2017-02-28 11:43:00,57.9,45.4,29.95,NNW,338,1.2,1.2,63,0.00,CLR,,0.00,WeatherDisplay:10.37,2017-02-28 09:43:00,
2017-02-28 11:48:00,57.4,44.0,29.95,SE,135,2.3,2.3,61,0.00,CLR,,0.00,WeatherDisplay:10.37,2017-02-28 09:48:00,
2017-02-28 11:53:00,57.6,43.8,29.95,East,90,2.3,2.3,60,0.00,CLR,,0.00,WeatherDisplay:10.37,2017-02-28 09:53:00,
2017-02-28 11:58:00,57.9,44.5,29.95,NNE,22,2.3,2.3,61,0.00,CLR,,0.00,WeatherDisplay:10.37,2017-02-28 09:58:00,
2017-02-28 12:03:00,58.5,44.6,29.94,ESE,112,6.9,6.9,60,0.00,CLR,,0.00,WeatherDisplay:10.37,2017-02-28 10:03:00,
2017-02-28 12:08:00,58.6,44.8,29.94,NNE,22,5.8,5.8,60,0.00,CLR,,0.00,WeatherDisplay:10.37,2017-02-28 10:08:00,
2017-02-28 12:13:00,59.4,45.0,29.94,NE,45,2.3,2.3,59,0.00,CLR,,0.00,WeatherDisplay:10.37,2017-02-28 10:13:00,
2017-02-28 12:18:00,59.4,45.0,29.94,ENE,68,2.4,2.4,59,0.00,CLR,,0.00,WeatherDisplay:10.37,2017-02-28 10:18:00,
2017-02-28 12:23:00,59.7,45.4,29.94,East,90,3.5,3.5,59,0.00,CLR,,0.00,WeatherDisplay:10.37,2017-02-28 10:23:00,
2017-02-28 12:28:00,59.5,44.7,29.93,ENE,68,3.5,3.5,58,0.00,CLR,,0.00,WeatherDisplay:10.37,2017-02-28 10:28:00,
2017-02-28 12:33:00,59.4,44.6,29.93,East,90,5.8,5.8,58,0.00,CLR,,0.00,WeatherDisplay:10.37,2017-02-28 10:33:00,
2017-02-28 12:38:00,60.1,45.2,29.93,East,90,3.5,3.5,58,0.00,CLR,,0.00,WeatherDisplay:10.37,2017-02-28 10:38:00,
2017-02-28 12:43:00,60.4,45.1,29.93,NNE,22,3.5,3.5,57,0.00,CLR,,0.00,WeatherDisplay:10.37,2017-02-28 10:43:00,
2017-02-28 12:48:00,61.0,45.2,29.92,SE,135,2.3,2.3,56,0.00,CLR,,0.00,WeatherDisplay:10.37,2017-02-28 10:48:00,
2017-02-28 12:53:00,61.2,44.9,29.92,NNE,22,4.6,5.4,55,0.00,CLR,,0.00,WeatherDisplay:10.37,2017-02-28 10:53:00,
2017-02-28 12:58:00,60.8,45.0,29.92,East,90,4.6,4.6,56,0.00,CLR,,0.00,WeatherDisplay:10.37,2017-02-28 10:58:00,
2017-02-28 13:03:00,61.5,45.2,29.91,East,90,3.5,3.5,55,0.00,CLR,,0.00,WeatherDisplay:10.37,2017-02-28 11:03:00,
2017-02-28 13:08:00,61.5,45.2,29.91,East,90,2.3,2.3,55,0.00,CLR,,0.00,WeatherDisplay:10.37,2017-02-28 11:08:00,
2017-02-28 13:13:00,62.4,45.5,29.91,NE,45,3.5,3.5,54,0.00,CLR,,0.00,WeatherDisplay:10.37,2017-02-28 11:13:00,
2017-02-28 13:18:00,62.2,45.9,29.91,East,90,3.5,3.5,55,0.00,CLR,,0.00,WeatherDisplay:10.37,2017-02-28 11:18:00,
2017-02-28 13:23:00,62.6,45.2,29.91,East,90,5.8,5.8,53,0.00,CLR,,0.00,WeatherDisplay:10.37,2017-02-28 11:23:00,
2017-02-28 13:28:00,61.5,45.2,29.91,NNW,338,5.8,5.8,55,0.00,CLR,,0.00,WeatherDisplay:10.37,2017-02-28 11:28:00,
2017-02-28 13:33:00,61.7,45.4,29.90,ENE,68,6.9,6.9,55,0.00,CLR,,0.00,WeatherDisplay:10.37,2017-02-28 11:33:00,
2017-02-28 13:38:00,61.9,45.0,29.90,NE,45,5.8,5.8,54,0.00,CLR,,0.00,WeatherDisplay:10.37,2017-02-28 11:38:00,
2017-02-28 13:43:00,61.9,45.5,29.90,NNE,22,3.5,3.5,55,0.00,CLR,,0.00,WeatherDisplay:10.37,2017-02-28 11:43:00,
2017-02-28 13:48:00,61.5,45.2,29.89,ENE,68,3.5,3.5,55,0.00,CLR,,0.00,WeatherDisplay:10.37,2017-02-28 11:48:00,
2017-02-28 13:53:00,61.3,45.0,29.89,East,90,4.6,4.6,55,0.00,CLR,,0.00,WeatherDisplay:10.37,2017-02-28 11:53:00,
2017-02-28 13:58:00,61.5,45.2,29.89,NE,45,4.9,4.9,55,0.00,CLR,,0.00,WeatherDisplay:10.37,2017-02-28 11:58:00,
2017-02-28 14:03:00,61.5,45.2,29.89,NNE,22,4.6,4.6,55,0.00,CLR,,0.00,WeatherDisplay:10.37,2017-02-28 12:03:00,
2017-02-28 14:08:00,61.9,45.0,29.88,NNE,22,2.9,2.9,54,0.00,CLR,,0.00,WeatherDisplay:10.37,2017-02-28 12:08:00,
2017-02-28 14:13:00,62.2,45.4,29.88,NNE,22,2.3,2.3,54,0.00,CLR,,0.00,WeatherDisplay:10.37,2017-02-28 12:13:00,
2017-02-28 14:18:00,62.6,45.2,29.88,NNE,22,3.5,3.5,53,0.00,CLR,,0.00,WeatherDisplay:10.37,2017-02-28 12:18:00,
2017-02-28 14:23:00,61.9,44.6,29.88,NNE,22,5.8,5.8,53,0.00,CLR,,0.00,WeatherDisplay:10.37,2017-02-28 12:23:00,
2017-02-28 14:28:00,61.7,44.4,29.88,ENE,68,5.8,5.8,53,0.00,CLR,,0.00,WeatherDisplay:10.37,2017-02-28 12:28:00,
2017-02-28 14:33:00,62.1,43.7,29.88,NE,45,3.5,3.5,51,0.00,CLR,,0.00,WeatherDisplay:10.37,2017-02-28 12:33:00,
2017-02-28 14:38:00,63.0,44.5,29.87,WSW,248,3.5,3.5,51,0.00,CLR,,0.00,WeatherDisplay:10.37,2017-02-28 12:38:00,
2017-02-28 14:43:00,63.7,44.7,29.87,SSW,202,2.3,2.3,50,0.00,CLR,,0.00,WeatherDisplay:10.37,2017-02-28 12:43:00,
2017-02-28 14:48:00,65.1,45.5,29.87,West,270,2.3,2.3,49,0.00,CLR,,0.00,WeatherDisplay:10.37,2017-02-28 12:48:00,
2017-02-28 14:53:00,66.6,46.3,29.86,WSW,248,1.2,1.2,48,0.00,CLR,,0.00,WeatherDisplay:10.37,2017-02-28 12:53:00,
2017-02-28 14:58:00,67.3,45.8,29.86,SSW,202,2.3,2.3,46,0.00,CLR,,0.00,WeatherDisplay:10.37,2017-02-28 12:58:00,
2017-02-28 15:03:00,67.5,44.8,29.86,SW,225,4.6,4.6,44,0.00,CLR,,0.00,WeatherDisplay:10.37,2017-02-28 13:03:00,